Regional Weather Roundup
Issued by NWS

Home | Current Version | Previous Version | Text Only | Print | Product List | Glossary On
Versions: 1 2 3 4 5 6 7 8 9 10 11 12 13 14 15 16 17 18 19 20 21 22 23 24 25 26 27 28 29 30 31 32 33 34 35 36 37 38 39 40 41 42 43 44 45 46 47 48 49 50
000
ASUS44 KFWD 300615
RWRTX
NORTH TEXAS HOURLY WEATHER ROUNDUP
NATIONAL WEATHER SERVICE FORT WORTH TX
1200 AM CST FRI JAN 30 2015

NOTE: "FAIR" INDICATES FEW OR NO CLOUDS BELOW 12,000 FEET WITH NO
SIGNIFICANT WEATHER AND/OR OBSTRUCTIONS TO VISIBILITY.

TXZ118-119-300700-
DALLAS/FORT WORTH METROPLEX

CITY           SKY/WX    TMP DP  RH WIND       PRES   REMARKS
DFW AIRPORT    CLOUDY    49  32  52 N10       30.48S
6HR MIN TEMP:  49; 6HR MAX TEMP:  58;

DALLAS LOVE    CLOUDY    50  30  46 NE10      30.49R
6HR MIN TEMP:  50; 6HR MAX TEMP:  60;

FTW MEACHAM    CLOUDY    50  32  50 N10       30.48S
6HR MIN TEMP:  50; 6HR MAX TEMP:  58;

DAL-EXECUTIVE  CLOUDY    51  30  44 NE12      30.47S
6HR MIN TEMP:  51; 6HR MAX TEMP:  62;

FTW-ALLIANCE   CLOUDY    48  31  51 N10       30.49R
6HR MIN TEMP:  48; 6HR MAX TEMP:  55;

FTW-SPINKS     CLOUDY    49  32  51 N9        30.49F
6HR MIN TEMP:  49; 6HR MAX TEMP:  58;

ARLINGTON      CLOUDY    51  29  42 N14       30.48S
6HR MIN TEMP:  51; 6HR MAX TEMP:  61;

GRAND PRAIRIE  CLOUDY    50  33  52 N8        30.50R
ADDISON        CLOUDY    50  31  49 N10       30.50S
6HR MIN TEMP:  50; 6HR MAX TEMP:  58;

MESQUITE       CLOUDY    48  32  54 N6        30.49R
6HR MIN TEMP:  48; 6HR MAX TEMP:  58;

LANCASTER      CLOUDY    48  31  51 N7        30.49R
6HR MIN TEMP:  48; 6HR MAX TEMP:  60;

$$

TXZ091>094-102>105-117-120-121-131>134-300700-
NORTH CENTRAL TEXAS

CITY           SKY/WX    TMP DP  RH WIND       PRES   REMARKS
SHRMAN/DENISON CLOUDY    46  34  62 NE8       30.50S
6HR MIN TEMP:  46; 6HR MAX TEMP:  53;

GAINESVILLE    CLOUDY    44  31  60 N6        30.52S
6HR MIN TEMP:  44; 6HR MAX TEMP:  52;

BOWIE          CLOUDY    44  32  62 N3        30.50S
6HR MIN TEMP:  44; 6HR MAX TEMP:  51;

BRIDGEPORT     CLOUDY    47  33  58 NE6       30.52S
6HR MIN TEMP:  47; 6HR MAX TEMP:  53;

DECATUR        CLOUDY    46  30  52 NE7       30.49S
6HR MIN TEMP:  46; 6HR MAX TEMP:  53;

DENTON         CLOUDY    47  32  56 N7        30.50R
6HR MIN TEMP:  47; 6HR MAX TEMP:  54;

MCKINNEY       MOCLDY    46  32  58 N9        30.49R
6HR MIN TEMP:  46; 6HR MAX TEMP:  56;

GREENVILLE     MOCLDY    46  32  57 N6        30.49R
ROCKWALL       CLOUDY    48  33  55 N7        30.48R
6HR MIN TEMP:  48; 6HR MAX TEMP:  58;

TERRELL        CLOUDY    50  33  52 N9        30.48R
6HR MIN TEMP:  50; 6HR MAX TEMP:  60;

WAXAHACHIE     MOCLDY    48  33  55 N10       30.48F
6HR MIN TEMP:  48; 6HR MAX TEMP:  59;

CLEBURNE       MOCLDY    48  30  49 NE16G23   30.48F
GRANBURY       MOCLDY    49  34  57 N3        30.50S
6HR MIN TEMP:  47; 6HR MAX TEMP:  59;

$$

TXZ083>090-098>101-113>116-127>130-139>142-154-155-300700-
WESTERN NORTH TEXAS

CITY           SKY/WX    TMP DP  RH WIND       PRES   REMARKS
WICHITA FALLS  CLOUDY    43  32  65 N7        30.51S WCI  39
6HR MIN TEMP:  43; 6HR MAX TEMP:  50;

WF-KICKAPOO    CLOUDY    39  25  56 N7        30.53R WCI  34
6HR MIN TEMP:  39; 6HR MAX TEMP:  49;

VERNON         CLOUDY    44  27  51 NE5       30.53F
6HR MIN TEMP:  41; 6HR MAX TEMP:  83;

ABILENE        CLOUDY    47  29  49 NE8       30.49S
6HR MIN TEMP:  47; 6HR MAX TEMP:  54;

ABILENE-DYESS  CLOUDY    46  30  53 NE9       30.49S
6HR MIN TEMP:  46; 6HR MAX TEMP:  53;

BRECKENRIDGE   CLOUDY    48  30  49 NE8       30.50S
6HR MIN TEMP:  48; 6HR MAX TEMP:  55;

GRAHAM         CLOUDY    46  33  60 N6        30.49F
6HR MIN TEMP:  45; 6HR MAX TEMP:  52;

MINERAL WELLS  CLOUDY    48  31  51 N6        30.47F
6HR MIN TEMP:  48; 6HR MAX TEMP:  55;

STEPHENVILLE   CLOUDY    47  32  55 N10       30.49S
6HR MIN TEMP:  47; 6HR MAX TEMP:  57;

COMANCHE       CLOUDY    47  33  57 N9        30.47S
6HR MIN TEMP:  47; 6HR MAX TEMP:  57;

BROWNWOOD      CLOUDY    48  32  53 N10       30.47S
COLEMAN        CLOUDY    48  32  54 NE15      30.47S
6HR MIN TEMP:  48; 6HR MAX TEMP:  57;

BRADY          CLOUDY    52  36  54 N14       30.43R
$$

TXZ143>147-156>162-174-175-300700-
CENTRAL TEXAS

CITY           SKY/WX    TMP DP  RH WIND       PRES   REMARKS
WACO           CLOUDY    50  34  54 N13       30.44F
6HR MIN TEMP:  50; 6HR MAX TEMP:  64;

WACO-MCGREGOR  CLOUDY    52  30  43 N12       30.46R
6HR MIN TEMP:  52; 6HR MAX TEMP:  64;

HILLSBORO      PTCLDY    49  32  51 N9        30.46S
6HR MIN TEMP:  48; 6HR MAX TEMP:  61;

CORSICANA      MOCLDY    50  32  50 N14       30.46R
6HR MIN TEMP:  50; 6HR MAX TEMP:  63;

MEXIA          CLOUDY    49  34  56 N12G18    30.42S
6HR MIN TEMP:  49; 6HR MAX TEMP:  63;

HEARNE         PTCLDY    53  36  51 N13       30.40S
6HR MIN TEMP:  53; 6HR MAX TEMP:  68;

CAMERON        PTCLDY    53  36  53 N14       30.40S
6HR MIN TEMP:  53; 6HR MAX TEMP:  65;

TEMPLE         CLOUDY    52  32  46 N16G26    30.41S
6HR MIN TEMP:  52; 6HR MAX TEMP:  64;

KILLEEN        CLOUDY    52  32  45 N14G22    30.42S
6HR MIN TEMP:  52; 6HR MAX TEMP:  65;

KILLEEN-SKYLRK CLOUDY    54  30  40 N16       30.40S
6HR MIN TEMP:  54; 6HR MAX TEMP:  66;

FORT HOOD      CLOUDY    53  32  45 N15       30.42R
6HR MIN TEMP:  53; 6HR MAX TEMP:  66;

GATESVILLE     MOCLDY    52  32  46 N6        30.46S
HAMILTON       PTCLDY    48  32  53 N10       30.46S
6HR MIN TEMP:  48; 6HR MAX TEMP:  62;

LAMPASAS       CLOUDY    51  33  49 N12G20    30.42S
6HR MIN TEMP:  51; 6HR MAX TEMP:  64;

$$

TXZ095>097-106>112-122>126-135>138-148>153-164>167-300700-
EAST TEXAS

CITY           SKY/WX    TMP DP  RH WIND       PRES   REMARKS
PARIS          MOCLDY    45  30  57 N8        30.48S
6HR MIN TEMP:  45; 6HR MAX TEMP:  52;

SULPHUR SPRNGS MOCLDY    46  34  62 N8        30.49S
6HR MIN TEMP:  46; 6HR MAX TEMP:  55;

MOUNT PLEASANT FAIR      45  32  60 N6        30.48R
6HR MIN TEMP:  45; 6HR MAX TEMP:  58;

GILMER         MOCLDY    46  33  59 N6        30.45S
6HR MIN TEMP:  46; 6HR MAX TEMP:  61;

MINEOLA        CLOUDY    48  32  53 N3        30.48R
TYLER          MOCLDY    49  33  54 N7        30.44R
6HR MIN TEMP:  49; 6HR MAX TEMP:  63;

LONGVIEW       MOCLDY    50  33  52 N8        30.43R
6HR MIN TEMP:  50; 6HR MAX TEMP:  64;

MARSHALL       MOCLDY    51  36  55 N7        30.45S
6HR MIN TEMP:  51; 6HR MAX TEMP:  68;

ATHENS         MOCLDY    46  32  57 N12       30.43S
PALESTINE      MOCLDY    49  35  56 N12       30.43S
JACKSONVILLE   PTCLDY    49  33  55 MISG      30.43R
HENDERSON      CLOUDY    48  34  57 N9        30.44R
6HR MIN TEMP:  48; 6HR MAX TEMP:  65;

NACOGDOCHES    PTCLDY    52  34  50 N13       30.40R
6HR MIN TEMP:  52; 6HR MAX TEMP:  64;

LUFKIN         PTCLDY    58  38  47 N14G23    30.37R
6HR MIN TEMP:  57; 6HR MAX TEMP:  70;

$$

SUPPLEMENTAL OBSERVATIONS (CENTRAL)

CITY           SKY/WX    TMP DP  RH WIND       PRES   REMARKS
LAKE TEXOMA      N/A     46  32  57 NE7         N/A
CADDO GRASSLND   N/A     45  32  61 N3          N/A
PAT MAYSE LAKE   N/A     45  32  61 NW8         N/A
LAKE LIMESTONE   N/A     52  32  46 N15G26      N/A
MCGREGOR         N/A     52  34  50 NE9G17      N/A
$$

SUPPLEMENTAL OBSERVATIONS (WEST)

CITY           SKY/WX    TMP DP  RH WIND       PRES   REMARKS



USA.gov is the U.S. government's official web portal to all federal, state and local government web resources and services.